QTR126 OEDF-EDDM

Flight info

Callsign QTR126
Flight time N/A
Altitude 36000
Route TAYMA N697 KITOT L550 NOVPA N697 MENLI L677 CVO L617 NABSI M872 METRU/N0411F240 M872 PLH M729 LORNO/N0374F180 M729 CDC M620 SOR M736 TEA L995 TIBER Y106 GITOD M726 BETOS BETOS1A
Aircraft A388/J-SADE2E3FGHIJ3J4J5M1RWXY/LB1D1

Departure

Time 2026-05-09 12:05
Airport King Fahd International Airport (OEDF)

Arrival

Time N/A
Airport Munich Airport (EDDM)
Time Latitude Longitude Altitude Speed Heading
2026-05-09 11:32 26.47831 49.79027 69 ft 0 kts 72°
2026-05-09 11:53 26.47831 49.79025 69 ft 2 kts 72°
2026-05-09 11:53 26.47826 49.79007 59 ft 2 kts 74°
2026-05-09 11:53 26.47822 49.78990 65 ft 2 kts 78°
2026-05-09 11:54 26.47820 49.78971 60 ft 2 kts 86°
2026-05-09 11:54 26.47823 49.78953 59 ft 2 kts 109°
2026-05-09 11:54 26.47835 49.78941 59 ft 2 kts 150°
2026-05-09 11:54 26.47840 49.78939 59 ft 0 kts 158°
2026-05-09 11:59 26.47832 49.78943 62 ft 4 kts 158°
2026-05-09 12:00 26.47780 49.78955 59 ft 11 kts 177°
2026-05-09 12:00 26.47721 49.78915 59 ft 13 kts 226°
2026-05-09 12:00 26.47637 49.78852 62 ft 16 kts 191°
2026-05-09 12:00 26.47557 49.78857 60 ft 19 kts 172°
2026-05-09 12:01 26.47421 49.78901 64 ft 22 kts 163°
2026-05-09 12:01 26.47263 49.78954 63 ft 26 kts 163°
2026-05-09 12:01 26.47079 49.79015 60 ft 29 kts 163°
2026-05-09 12:01 26.46879 49.79081 61 ft 31 kts 163°
2026-05-09 12:02 26.46669 49.79150 68 ft 33 kts 164°
2026-05-09 12:02 26.46443 49.79212 67 ft 34 kts 167°
2026-05-09 12:02 26.46209 49.79279 66 ft 35 kts 165°
2026-05-09 12:02 26.45968 49.79353 64 ft 36 kts 165°
2026-05-09 12:03 26.45721 49.79429 65 ft 34 kts 165°
2026-05-09 12:03 26.45637 49.79416 69 ft 8 kts 231°
2026-05-09 12:03 26.45597 49.79340 65 ft 14 kts 250°
2026-05-09 12:03 26.45560 49.79214 64 ft 18 kts 263°
2026-05-09 12:04 26.45620 49.79139 61 ft 15 kts 339°
2026-05-09 12:04 26.45722 49.79096 62 ft 18 kts 340°
2026-05-09 12:04 26.46014 49.79003 64 ft 80 kts 350°
2026-05-09 12:04 26.46760 49.78779 61 ft 138 kts 344°
2026-05-09 12:05 26.47795 49.78430 162 ft 165 kts 342°
2026-05-09 12:05 26.48883 49.78042 643 ft 164 kts 341°
2026-05-09 12:05 26.49977 49.77664 1135 ft 165 kts 342°
2026-05-09 12:05 26.51083 49.77282 1562 ft 169 kts 340°
2026-05-09 12:06 26.52239 49.76910 1860 ft 180 kts 345°
2026-05-09 12:06 26.53513 49.76595 1997 ft 193 kts 346°
2026-05-09 12:06 26.54858 49.76246 2089 ft 203 kts 345°
2026-05-09 12:06 26.56257 49.75840 2161 ft 211 kts 343°
2026-05-09 12:07 26.57694 49.75372 2240 ft 219 kts 337°
2026-05-09 12:07 26.58945 49.74312 2336 ft 239 kts 305°
2026-05-09 12:07 26.59580 49.72576 2553 ft 253 kts 276°
2026-05-09 12:07 26.59414 49.70616 3030 ft 256 kts 257°
2026-05-09 12:08 26.59045 49.68661 3479 ft 258 kts 262°
2026-05-09 12:08 26.58927 49.66652 3942 ft 260 kts 271°
2026-05-09 12:08 26.59070 49.64631 4382 ft 262 kts 277°
2026-05-09 12:08 26.59369 49.62618 4817 ft 264 kts 281°
2026-05-09 12:09 26.59738 49.60605 5227 ft 265 kts 282°
2026-05-09 12:09 26.60128 49.58589 5624 ft 267 kts 282°
2026-05-09 12:09 26.60523 49.56554 5996 ft 268 kts 282°
2026-05-09 12:10 26.61697 49.50380 7042 ft 273 kts 282°
2026-05-09 12:10 26.62088 49.48300 7361 ft 274 kts 282°
2026-05-09 12:10 26.62481 49.46210 7666 ft 275 kts 282°
2026-05-09 12:11 26.62875 49.44112 7968 ft 277 kts 282°
2026-05-09 12:11 26.63267 49.42030 8251 ft 278 kts 282°
2026-05-09 12:11 26.63664 49.39915 8523 ft 279 kts 282°
2026-05-09 12:11 26.64063 49.37787 8788 ft 280 kts 282°
2026-05-09 12:12 26.64463 49.35653 9043 ft 281 kts 282°
2026-05-09 12:12 26.64863 49.33514 9272 ft 282 kts 282°
2026-05-09 12:12 26.65266 49.31360 9497 ft 283 kts 282°
2026-05-09 12:12 26.65669 49.29202 9714 ft 284 kts 282°
2026-05-09 12:13 26.66071 49.27051 9796 ft 285 kts 282°
2026-05-09 12:13 26.66479 49.24862 10117 ft 292 kts 282°
2026-05-09 12:13 26.66905 49.22577 10093 ft 307 kts 282°
2026-05-09 12:13 26.67356 49.20152 10086 ft 330 kts 282°
2026-05-09 12:14 26.67841 49.17543 10091 ft 354 kts 281°
2026-05-09 12:14 26.68358 49.14762 10087 ft 376 kts 281°
2026-05-09 12:14 26.68901 49.11841 10355 ft 388 kts 281°
2026-05-09 12:14 26.69451 49.08876 10926 ft 391 kts 282°
2026-05-09 12:15 26.70002 49.05913 11482 ft 394 kts 282°
2026-05-09 12:15 26.70569 49.02858 12014 ft 397 kts 281°
2026-05-09 12:15 26.71132 48.99823 12540 ft 400 kts 281°
2026-05-09 12:15 26.71690 48.96805 13017 ft 403 kts 281°
2026-05-09 12:16 26.72261 48.93715 13505 ft 406 kts 281°
2026-05-09 12:16 26.72834 48.90612 13976 ft 409 kts 281°
2026-05-09 12:16 26.73411 48.87482 14431 ft 412 kts 281°
2026-05-09 12:16 26.73992 48.84326 14865 ft 414 kts 281°
2026-05-09 12:17 26.74575 48.81156 15316 ft 417 kts 281°
2026-05-09 12:17 26.75160 48.77970 15721 ft 420 kts 281°
2026-05-09 12:17 26.75749 48.74757 16134 ft 422 kts 281°
2026-05-09 12:17 26.76339 48.71532 16536 ft 425 kts 281°
2026-05-09 12:18 26.76943 48.68292 16914 ft 427 kts 282°
2026-05-09 12:18 26.77614 48.65087 17281 ft 429 kts 283°
2026-05-09 12:18 26.78329 48.61833 17649 ft 432 kts 284°
2026-05-09 12:18 26.79049 48.58567 18003 ft 434 kts 283°
2026-05-09 12:19 26.79770 48.55269 18357 ft 437 kts 283°
2026-05-09 12:19 26.80487 48.51956 18699 ft 439 kts 283°
2026-05-09 12:19 26.81204 48.48630 19057 ft 441 kts 283°
2026-05-09 12:19 26.81922 48.45285 19409 ft 443 kts 283°
2026-05-09 12:20 26.82643 48.41921 19736 ft 446 kts 283°
2026-05-09 12:20 26.83368 48.38536 20086 ft 448 kts 283°
2026-05-09 12:20 26.84094 48.35143 20430 ft 450 kts 283°
2026-05-09 12:20 26.84824 48.31724 20767 ft 452 kts 283°
2026-05-09 12:21 26.85557 48.28290 21105 ft 454 kts 283°
2026-05-09 12:21 26.86292 48.24842 21432 ft 457 kts 283°
2026-05-09 12:21 26.87030 48.21373 21771 ft 460 kts 283°
2026-05-09 12:21 26.87773 48.17877 22106 ft 462 kts 283°
2026-05-09 12:22 26.88518 48.14372 22483 ft 464 kts 283°
2026-05-09 12:22 26.89266 48.10842 22840 ft 467 kts 283°
2026-05-09 12:22 26.90017 48.07296 23205 ft 469 kts 283°
2026-05-09 12:22 26.90772 48.03727 23566 ft 472 kts 283°
2026-05-09 12:23 26.91530 48.00138 23948 ft 474 kts 283°
2026-05-09 12:23 26.92291 47.96528 24350 ft 477 kts 283°
2026-05-09 12:23 26.93053 47.92905 24738 ft 480 kts 283°
2026-05-09 12:23 26.93821 47.89250 25146 ft 483 kts 283°
2026-05-09 12:24 26.94581 47.85623 25536 ft 486 kts 283°
2026-05-09 12:24 26.95356 47.81920 25940 ft 489 kts 283°
2026-05-09 12:24 26.96133 47.78199 26346 ft 492 kts 283°
2026-05-09 12:24 26.96911 47.74472 27026 ft 488 kts 283°
2026-05-09 12:25 26.97669 47.70835 28265 ft 471 kts 283°
2026-05-09 12:25 26.98408 47.67286 29063 ft 466 kts 283°
2026-05-09 12:25 26.99149 47.63718 29220 ft 475 kts 283°
2026-05-09 12:25 26.99905 47.60075 29335 ft 484 kts 283°
2026-05-09 12:26 27.00676 47.56355 29428 ft 494 kts 283°
2026-05-09 12:26 27.02256 47.48721 29638 ft 512 kts 283°
2026-05-09 12:26 27.03065 47.44801 29803 ft 519 kts 283°
2026-05-09 12:27 27.03880 47.40845 30166 ft 521 kts 283°
2026-05-09 12:27 27.04696 47.36881 30548 ft 523 kts 283°
2026-05-09 12:27 27.05515 47.32894 31005 ft 524 kts 283°
2026-05-09 12:27 27.06330 47.28918 31535 ft 523 kts 283°
2026-05-09 12:28 27.07144 47.24948 32061 ft 521 kts 283°
2026-05-09 12:28 27.07953 47.20991 32582 ft 520 kts 283°
2026-05-09 12:28 27.08760 47.17038 33094 ft 519 kts 283°
2026-05-09 12:28 27.09565 47.13092 33599 ft 518 kts 283°
2026-05-09 12:29 27.10367 47.09154 34106 ft 517 kts 283°
2026-05-09 12:29 27.11155 47.05273 34602 ft 515 kts 283°
2026-05-09 12:29 27.11951 47.01353 35076 ft 514 kts 283°
2026-05-09 12:29 27.12743 46.97443 35552 ft 513 kts 283°
2026-05-09 12:30 27.13534 46.93537 36008 ft 512 kts 283°
2026-05-09 12:30 27.14327 46.89614 36161 ft 517 kts 283°
2026-05-09 12:30 27.15876 46.81930 35999 ft 496 kts 282°
2026-05-09 12:31 27.18106 46.70827 36002 ft 486 kts 282°
2026-05-09 12:32 27.19591 46.63406 36003 ft 487 kts 282°
2026-05-09 12:32 27.21074 46.55975 36002 ft 487 kts 282°
2026-05-09 12:33 27.22552 46.48546 35996 ft 487 kts 282°
2026-05-09 12:33 27.24027 46.41111 36002 ft 487 kts 282°
2026-05-09 12:34 27.25497 46.33682 35999 ft 487 kts 282°
2026-05-09 12:34 27.26967 46.26231 35999 ft 487 kts 282°
2026-05-09 12:35 27.28421 46.18840 36001 ft 487 kts 282°
2026-05-09 12:35 27.29879 46.11402 36000 ft 487 kts 282°
2026-05-09 12:36 27.31336 46.03952 35999 ft 487 kts 282°
2026-05-09 12:36 27.32787 45.96506 35998 ft 487 kts 282°
2026-05-09 12:37 27.34233 45.89068 35999 ft 487 kts 282°
2026-05-09 12:37 27.35678 45.81609 36004 ft 487 kts 282°
2026-05-09 12:38 27.37118 45.74155 35998 ft 487 kts 282°
2026-05-09 12:38 27.38554 45.66700 36004 ft 488 kts 282°
2026-05-09 12:39 27.39987 45.59234 35997 ft 488 kts 282°
2026-05-09 12:39 27.41406 45.51826 36003 ft 488 kts 282°
2026-05-09 12:40 27.42830 45.44365 36000 ft 488 kts 282°
2026-05-09 12:40 27.44251 45.36897 36002 ft 488 kts 282°
2026-05-09 12:41 27.45670 45.29413 35998 ft 488 kts 282°
2026-05-09 12:41 27.47082 45.21947 36000 ft 488 kts 282°
2026-05-09 12:42 27.48493 45.14467 36003 ft 488 kts 282°
2026-05-09 12:42 27.49898 45.06990 36003 ft 488 kts 282°
2026-05-09 12:43 27.51300 44.99506 35997 ft 488 kts 282°
2026-05-09 12:43 27.52696 44.92035 36002 ft 488 kts 282°
2026-05-09 12:44 27.54081 44.84594 35999 ft 488 kts 282°
2026-05-09 12:44 27.55471 44.77105 36001 ft 488 kts 282°
2026-05-09 12:45 27.56856 44.69622 35999 ft 488 kts 282°
2026-05-09 12:45 27.58237 44.62133 36002 ft 488 kts 282°
2026-05-09 12:46 27.59614 44.54644 36001 ft 488 kts 281°
2026-05-09 12:46 27.60989 44.47144 35999 ft 489 kts 281°
2026-05-09 12:47 27.62360 44.39643 35999 ft 488 kts 281°
2026-05-09 12:47 27.63496 44.33404 36000 ft 489 kts 281°
2026-05-09 12:48 27.64860 44.25895 36001 ft 489 kts 281°
2026-05-09 12:48 27.66218 44.18394 36000 ft 489 kts 281°
2026-05-09 12:49 27.67575 44.10879 36000 ft 489 kts 281°
2026-05-09 12:49 27.68925 44.03369 35997 ft 489 kts 281°
2026-05-09 12:50 27.70273 43.95852 36002 ft 488 kts 281°
2026-05-09 12:50 27.71616 43.88337 36000 ft 489 kts 281°
2026-05-09 12:51 27.72956 43.80819 35996 ft 489 kts 281°
2026-05-09 12:51 27.74293 43.73288 36003 ft 489 kts 281°
2026-05-09 12:52 27.75624 43.65767 36002 ft 489 kts 281°
2026-05-09 12:52 27.76951 43.58242 36002 ft 489 kts 281°
2026-05-09 12:53 27.78267 43.50757 36000 ft 489 kts 281°
2026-05-09 12:53 27.79596 43.43172 35998 ft 489 kts 281°
2026-05-09 12:54 27.80903 43.35690 35999 ft 489 kts 281°
2026-05-09 12:54 27.82217 43.28139 36001 ft 489 kts 281°
2026-05-09 12:55 27.83526 43.20591 36002 ft 489 kts 281°
2026-05-09 12:55 27.84831 43.13045 35998 ft 489 kts 281°
2026-05-09 12:56 27.86132 43.05493 35996 ft 489 kts 281°
2026-05-09 12:56 27.87429 42.97941 35996 ft 489 kts 281°
2026-05-09 12:57 27.88722 42.90384 35998 ft 490 kts 281°
2026-05-09 12:57 27.90010 42.82829 36000 ft 489 kts 281°
2026-05-09 12:58 27.91296 42.75263 36001 ft 490 kts 281°
2026-05-09 12:58 27.92570 42.67743 35998 ft 489 kts 281°
2026-05-09 12:59 27.93846 42.60183 35999 ft 489 kts 281°
2026-05-09 12:59 27.95117 42.52621 36001 ft 490 kts 281°
2026-05-09 13:00 27.96385 42.45056 35999 ft 489 kts 281°
2026-05-09 13:00 27.97649 42.37490 35998 ft 489 kts 281°
2026-05-09 13:01 27.98907 42.29929 36003 ft 490 kts 281°
2026-05-09 13:01 28.00163 42.22360 35999 ft 489 kts 280°
2026-05-09 13:02 28.01416 42.14779 36003 ft 490 kts 280°
2026-05-09 13:02 28.02663 42.07204 36001 ft 490 kts 280°
2026-05-09 13:03 28.03907 41.99623 35997 ft 490 kts 280°
2026-05-09 13:03 28.05147 41.92040 36000 ft 490 kts 280°
2026-05-09 13:04 28.06374 41.84507 36000 ft 490 kts 280°
2026-05-09 13:04 28.07606 41.76918 36000 ft 490 kts 280°
2026-05-09 13:05 28.08835 41.69322 35999 ft 490 kts 280°
2026-05-09 13:05 28.10059 41.61724 36000 ft 490 kts 280°
2026-05-09 13:06 28.11279 41.54128 36001 ft 490 kts 280°
2026-05-09 13:06 28.12496 41.46521 36002 ft 491 kts 280°
2026-05-09 13:07 28.13708 41.38915 36002 ft 491 kts 280°
2026-05-09 13:07 28.14915 41.31315 36002 ft 490 kts 280°
2026-05-09 13:08 28.16111 41.23754 36004 ft 490 kts 280°
2026-05-09 13:08 28.17310 41.16151 36002 ft 490 kts 280°
2026-05-09 13:09 28.18506 41.08534 36002 ft 490 kts 280°
2026-05-09 13:09 28.19698 41.00913 36003 ft 490 kts 280°
2026-05-09 13:10 28.20886 40.93295 35999 ft 491 kts 280°
2026-05-09 13:10 28.22070 40.85671 36003 ft 491 kts 280°
2026-05-09 13:11 28.23248 40.78053 36003 ft 491 kts 279°
2026-05-09 13:11 28.24423 40.70429 35998 ft 491 kts 279°
2026-05-09 13:12 28.25587 40.62848 36003 ft 491 kts 279°
2026-05-09 13:12 28.26754 40.55217 36002 ft 491 kts 279°
2026-05-09 13:13 28.27917 40.47584 36000 ft 491 kts 279°
2026-05-09 13:13 28.29075 40.39948 36000 ft 491 kts 279°
2026-05-09 13:14 28.30230 40.32311 36000 ft 491 kts 279°
2026-05-09 13:16 28.34805 40.01749 36000 ft 491 kts 279°
2026-05-09 13:16 28.35936 39.94102 36003 ft 491 kts 279°
2026-05-09 13:17 28.37067 39.86450 35998 ft 491 kts 279°
2026-05-09 13:17 28.38193 39.78796 36000 ft 491 kts 279°
2026-05-09 13:18 28.39312 39.71152 36000 ft 491 kts 279°
2026-05-09 13:18 28.40422 39.63546 36002 ft 491 kts 279°
2026-05-09 13:19 28.41533 39.55895 36001 ft 491 kts 279°
2026-05-09 13:19 28.42641 39.48242 35998 ft 491 kts 279°
2026-05-09 13:20 28.43744 39.40581 35999 ft 491 kts 279°
2026-05-09 13:20 28.44842 39.32933 36000 ft 491 kts 279°
2026-05-09 13:21 28.45936 39.25281 36000 ft 490 kts 279°
2026-05-09 13:21 28.47025 39.17627 36002 ft 490 kts 279°
2026-05-09 13:22 28.48109 39.09978 36000 ft 490 kts 279°
2026-05-09 13:22 28.49190 39.02322 35998 ft 490 kts 279°
2026-05-09 13:23 28.51863 38.83243 36002 ft 490 kts 279°
2026-05-09 13:24 28.52928 38.75585 35999 ft 490 kts 279°
2026-05-09 13:24 28.53989 38.67925 36001 ft 490 kts 279°
2026-05-09 13:25 28.55045 38.60266 36003 ft 490 kts 279°
2026-05-09 13:26 28.56624 38.48759 36002 ft 491 kts 278°
2026-05-09 13:26 28.57672 38.41079 35999 ft 491 kts 278°
2026-05-09 13:27 28.58714 38.33410 36003 ft 491 kts 278°
2026-05-09 13:27 28.59752 38.25733 36002 ft 491 kts 278°
2026-05-09 13:28 28.60787 38.18051 36003 ft 491 kts 278°
2026-05-09 13:28 28.61812 38.10406 36002 ft 491 kts 278°
2026-05-09 13:29 28.62794 38.02706 35997 ft 492 kts 278°
2026-05-09 13:29 28.63830 37.95021 35998 ft 491 kts 279°
2026-05-09 13:30 28.64874 37.87330 36002 ft 491 kts 278°
2026-05-09 13:30 28.65892 37.79643 35996 ft 491 kts 278°
2026-05-09 13:31 28.66900 37.71954 35997 ft 490 kts 278°
2026-05-09 13:31 28.67902 37.64274 36002 ft 491 kts 278°
2026-05-09 13:32 28.68901 37.56585 35998 ft 491 kts 278°
2026-05-09 13:32 28.70386 37.45094 35998 ft 491 kts 278°
2026-05-09 13:33 28.71215 37.38646 36000 ft 492 kts 278°
2026-05-09 13:33 28.72361 37.29684 36001 ft 492 kts 278°
2026-05-09 13:34 28.73344 37.21962 36002 ft 492 kts 278°
2026-05-09 13:34 28.74163 37.15502 36004 ft 492 kts 278°
2026-05-09 13:35 28.75130 37.07840 36001 ft 492 kts 278°
2026-05-09 13:35 28.76098 37.00135 36001 ft 491 kts 278°
2026-05-09 13:36 28.77060 36.92440 35998 ft 490 kts 278°
2026-05-09 13:36 28.78018 36.84740 36001 ft 490 kts 278°
2026-05-09 13:37 28.78971 36.77048 36003 ft 490 kts 278°
2026-05-09 13:37 28.79920 36.69353 36000 ft 490 kts 278°
2026-05-09 13:38 28.80863 36.61666 35997 ft 490 kts 278°
2026-05-09 13:38 28.81803 36.53964 35999 ft 490 kts 278°
2026-05-09 13:39 28.82738 36.46266 35996 ft 490 kts 278°
2026-05-09 13:39 28.83670 36.38563 36000 ft 490 kts 278°
2026-05-09 13:40 28.84596 36.30867 35999 ft 490 kts 277°
2026-05-09 13:40 28.85517 36.23173 36001 ft 489 kts 277°
2026-05-09 13:41 28.86434 36.15471 35997 ft 489 kts 277°
2026-05-09 13:41 28.87347 36.07771 35997 ft 490 kts 277°
2026-05-09 13:42 28.88255 36.00078 36002 ft 490 kts 277°
2026-05-09 13:42 28.89159 35.92374 36001 ft 490 kts 277°
2026-05-09 13:43 28.90062 35.84643 35999 ft 491 kts 277°
2026-05-09 13:43 28.90961 35.76907 35999 ft 492 kts 277°
2026-05-09 13:44 28.91858 35.69147 36004 ft 493 kts 277°
2026-05-09 13:44 28.92752 35.61375 35999 ft 494 kts 277°
2026-05-09 13:45 28.93637 35.53637 36002 ft 495 kts 277°
2026-05-09 13:45 28.94522 35.45863 36002 ft 493 kts 277°
2026-05-09 13:46 28.95401 35.38101 36003 ft 493 kts 277°
2026-05-09 13:46 28.96275 35.30354 35996 ft 490 kts 277°
2026-05-09 13:47 28.97145 35.22613 35998 ft 490 kts 277°
2026-05-09 13:47 28.98013 35.14868 36001 ft 493 kts 277°
2026-05-09 13:48 28.98878 35.07111 36001 ft 493 kts 277°
2026-05-09 13:48 28.99737 34.99361 35999 ft 490 kts 277°
2026-05-09 13:49 29.00587 34.91649 35998 ft 488 kts 277°
2026-05-09 13:49 29.01409 34.84157 36002 ft 483 kts 277°
2026-05-09 13:50 29.02235 34.76584 35999 ft 484 kts 277°
2026-05-09 13:50 29.03063 34.68951 35999 ft 484 kts 277°
2026-05-09 13:51 29.04761 34.61513 36001 ft 489 kts 289°
2026-05-09 13:51 29.06998 34.54179 35998 ft 488 kts 289°
2026-05-09 13:52 29.09185 34.46830 36001 ft 488 kts 288°
2026-05-09 13:52 29.11342 34.39465 36001 ft 489 kts 288°
2026-05-09 13:53 29.13504 34.32056 35999 ft 492 kts 288°
2026-05-09 13:53 29.15665 34.24633 35997 ft 492 kts 288°
2026-05-09 13:54 29.17827 34.17191 35999 ft 493 kts 288°
2026-05-09 13:54 29.19988 34.09737 36000 ft 493 kts 288°
2026-05-09 13:55 29.22141 34.02292 36001 ft 492 kts 288°
2026-05-09 13:55 29.24289 33.94848 36001 ft 493 kts 288°
2026-05-09 13:56 29.26434 33.87395 35995 ft 492 kts 288°
2026-05-09 13:56 29.28574 33.79953 36001 ft 492 kts 288°
2026-05-09 13:57 29.30693 33.72563 36000 ft 491 kts 288°
2026-05-09 13:57 29.32820 33.65127 36002 ft 489 kts 288°
2026-05-09 13:58 29.34937 33.57711 36002 ft 489 kts 288°
2026-05-09 13:58 29.37047 33.50299 35999 ft 489 kts 288°
2026-05-09 13:59 29.39156 33.42872 35999 ft 490 kts 288°
2026-05-09 13:59 29.41247 33.35496 36000 ft 490 kts 288°
2026-05-09 14:00 29.42651 33.30529 36000 ft 490 kts 288°
2026-05-09 14:00 29.45445 33.20626 36004 ft 490 kts 288°
2026-05-09 14:01 29.47538 33.13187 36000 ft 487 kts 288°
2026-05-09 14:01 29.49611 33.05800 35998 ft 485 kts 288°
2026-05-09 14:02 29.51677 32.98424 36001 ft 486 kts 288°
2026-05-09 14:02 29.53741 32.91034 36001 ft 485 kts 288°
2026-05-09 14:03 29.55798 32.83654 36002 ft 485 kts 287°
2026-05-09 14:03 29.57848 32.76278 36002 ft 484 kts 287°
2026-05-09 14:04 29.59894 32.68894 35998 ft 484 kts 287°
2026-05-09 14:04 29.61593 32.61454 35999 ft 484 kts 284°
2026-05-09 14:05 29.63303 32.53963 36000 ft 484 kts 284°
2026-05-09 14:05 29.65004 32.46478 35996 ft 484 kts 284°
2026-05-09 14:06 29.66697 32.38982 36001 ft 484 kts 284°
2026-05-09 14:06 29.68384 32.31487 35999 ft 484 kts 284°
2026-05-09 14:07 29.70069 32.23980 35998 ft 485 kts 284°
2026-05-09 14:07 29.71751 32.16466 36003 ft 486 kts 284°
2026-05-09 14:08 29.73436 32.08920 35999 ft 487 kts 284°
2026-05-09 14:08 29.75115 32.01376 35999 ft 487 kts 284°
2026-05-09 14:09 29.76789 31.93838 36000 ft 486 kts 285°
2026-05-09 14:09 29.79165 31.86547 36002 ft 487 kts 296°
2026-05-09 14:10 29.82755 31.79946 35996 ft 488 kts 307°
2026-05-09 14:10 29.84681 31.76989 36001 ft 488 kts 306°
2026-05-09 14:11 29.88712 31.70691 36000 ft 488 kts 306°
2026-05-09 14:11 29.92708 31.64437 36001 ft 488 kts 306°
2026-05-09 14:12 29.96773 31.58156 36002 ft 488 kts 306°
2026-05-09 14:12 30.00834 31.51882 36002 ft 487 kts 306°
2026-05-09 14:13 30.04874 31.45621 36000 ft 487 kts 306°
2026-05-09 14:15 30.23701 31.23322 36000 ft 485 kts 316°
2026-05-09 14:15 30.28640 31.18002 35999 ft 485 kts 316°
2026-05-09 14:16 30.33553 31.12705 36000 ft 485 kts 316°
2026-05-09 14:16 30.38496 31.07369 36000 ft 485 kts 316°
2026-05-09 14:17 30.43434 31.02030 35999 ft 485 kts 316°
2026-05-09 14:17 30.48375 30.96680 36001 ft 485 kts 316°
2026-05-09 14:18 30.53315 30.91323 36002 ft 485 kts 316°
2026-05-09 14:18 30.57413 30.86874 36001 ft 485 kts 316°
2026-05-09 14:19 30.63142 30.80644 36002 ft 485 kts 316°
2026-05-09 14:19 30.68070 30.75277 36002 ft 485 kts 316°
2026-05-09 14:20 30.72995 30.69905 36000 ft 485 kts 316°
2026-05-09 14:20 30.77115 30.65406 36001 ft 485 kts 316°
2026-05-09 14:21 30.84465 30.57364 36001 ft 485 kts 316°
2026-05-09 14:21 30.89384 30.51973 36000 ft 485 kts 316°
2026-05-09 14:22 30.94300 30.46577 36001 ft 485 kts 316°
2026-05-09 14:22 30.99211 30.41178 36002 ft 485 kts 316°
2026-05-09 14:23 31.04119 30.35774 36001 ft 485 kts 316°
2026-05-09 14:23 31.08436 30.29764 36002 ft 485 kts 301°
2026-05-09 14:24 31.11264 30.22648 36001 ft 484 kts 287°
2026-05-09 14:24 31.13283 30.15152 36002 ft 484 kts 288°
2026-05-09 14:25 31.15342 30.07663 36000 ft 484 kts 287°
2026-05-09 14:25 31.17405 30.00179 35998 ft 484 kts 290°
2026-05-09 14:26 31.20256 29.93062 35999 ft 485 kts 300°
2026-05-09 14:26 31.24091 29.86586 35998 ft 485 kts 306°
2026-05-09 14:27 31.28066 29.80217 36002 ft 485 kts 306°
2026-05-09 14:27 31.32030 29.73836 35995 ft 485 kts 306°
2026-05-09 14:28 31.35996 29.67455 36002 ft 485 kts 306°
2026-05-09 14:28 31.39937 29.61110 36002 ft 485 kts 306°
2026-05-09 14:29 31.43900 29.54717 35999 ft 485 kts 306°
2026-05-09 14:29 31.47864 29.48313 36000 ft 485 kts 306°
2026-05-09 14:30 31.51819 29.41913 36000 ft 485 kts 306°
2026-05-09 14:30 31.55770 29.35508 36000 ft 485 kts 306°
2026-05-09 14:31 31.59719 29.29096 36001 ft 485 kts 305°
2026-05-09 14:31 31.63656 29.22675 35999 ft 485 kts 305°
2026-05-09 14:32 31.67592 29.16243 36001 ft 485 kts 305°
2026-05-09 14:32 31.71524 29.09809 36000 ft 485 kts 305°
2026-05-09 14:33 31.75450 29.03373 36001 ft 485 kts 305°
2026-05-09 14:33 31.77414 29.00150 36111 ft 485 kts 305°
2026-05-09 14:33 31.79381 28.96923 36521 ft 485 kts 305°
2026-05-09 14:34 31.81347 28.93694 36836 ft 488 kts 305°
2026-05-09 14:34 31.83336 28.90426 36874 ft 493 kts 305°
2026-05-09 14:34 31.87322 28.83864 36968 ft 494 kts 305°
2026-05-09 14:35 31.89316 28.80577 36806 ft 494 kts 305°
2026-05-09 14:35 31.91276 28.77344 36596 ft 488 kts 305°
2026-05-09 14:35 31.95179 28.70897 36595 ft 482 kts 305°
2026-05-09 14:36 31.99076 28.64447 36595 ft 484 kts 305°
2026-05-09 14:36 32.02974 28.57987 36595 ft 484 kts 305°
2026-05-09 14:37 32.06874 28.51512 36595 ft 484 kts 305°
2026-05-09 14:37 32.10765 28.45040 36595 ft 484 kts 305°
2026-05-09 14:38 32.14655 28.38560 36595 ft 484 kts 305°
2026-05-09 14:38 32.18539 28.32079 36595 ft 484 kts 305°
2026-05-09 14:39 32.22425 28.25583 36595 ft 484 kts 305°
2026-05-09 14:39 32.26305 28.19086 36595 ft 484 kts 305°
2026-05-09 14:40 32.30177 28.12590 36595 ft 484 kts 305°
2026-05-09 14:40 32.34026 28.06123 36595 ft 484 kts 305°
2026-05-09 14:41 32.37895 27.99611 36596 ft 484 kts 304°
2026-05-09 14:41 32.41761 27.93092 36595 ft 484 kts 304°
2026-05-09 14:42 32.45625 27.86567 36596 ft 484 kts 304°
2026-05-09 14:42 32.49484 27.80038 36595 ft 484 kts 304°
2026-05-09 14:43 32.53339 27.73504 36595 ft 484 kts 304°
2026-05-09 14:43 32.57191 27.66965 36595 ft 484 kts 304°
2026-05-09 14:44 32.61039 27.60420 36595 ft 484 kts 304°
2026-05-09 14:44 32.64860 27.53910 36595 ft 484 kts 304°
2026-05-09 14:45 32.68700 27.47357 36595 ft 484 kts 304°
2026-05-09 14:45 32.72540 27.40795 36595 ft 484 kts 304°
2026-05-09 14:46 32.76370 27.34216 36595 ft 484 kts 304°
2026-05-09 14:46 32.80194 27.27634 36595 ft 484 kts 304°
2026-05-09 14:47 32.84016 27.21048 36595 ft 484 kts 304°
2026-05-09 14:47 32.87835 27.14456 36595 ft 484 kts 304°
2026-05-09 14:48 32.91650 27.07860 36595 ft 484 kts 304°
2026-05-09 14:48 32.95461 27.01258 36596 ft 484 kts 304°
2026-05-09 14:49 32.99268 26.94650 36595 ft 484 kts 304°
2026-05-09 14:49 33.03060 26.88038 36595 ft 484 kts 304°
2026-05-09 14:50 33.06861 26.81407 36595 ft 484 kts 304°
2026-05-09 14:50 33.10654 26.74776 36595 ft 484 kts 304°
2026-05-09 14:51 33.14445 26.68137 36595 ft 484 kts 304°
2026-05-09 14:51 33.18206 26.61538 36595 ft 484 kts 304°
2026-05-09 14:52 33.21986 26.54894 36596 ft 484 kts 304°
2026-05-09 14:52 33.25766 26.48239 36595 ft 484 kts 304°
2026-05-09 14:53 33.29540 26.41581 36595 ft 484 kts 304°
2026-05-09 14:53 33.33310 26.34919 36596 ft 484 kts 304°
2026-05-09 14:54 33.37081 26.28243 36595 ft 484 kts 303°
2026-05-09 14:54 33.40843 26.21570 36596 ft 484 kts 303°
2026-05-09 14:55 33.44603 26.14890 36596 ft 484 kts 303°
2026-05-09 14:55 33.48358 26.08206 36596 ft 484 kts 303°
2026-05-09 14:56 33.52110 26.01515 36596 ft 484 kts 303°
2026-05-09 14:56 33.55834 25.94862 36596 ft 484 kts 303°
2026-05-09 14:57 33.59580 25.88157 36596 ft 484 kts 303°
2026-05-09 14:57 33.63322 25.81446 36596 ft 484 kts 303°
2026-05-09 14:58 33.67059 25.74734 36596 ft 484 kts 303°
2026-05-09 14:58 33.70795 25.68009 36596 ft 484 kts 303°
2026-05-09 14:59 33.74526 25.61282 36596 ft 484 kts 303°
2026-05-09 14:59 33.78252 25.54551 36596 ft 484 kts 303°
2026-05-09 15:00 33.81978 25.47809 36596 ft 484 kts 303°
2026-05-09 15:00 33.85697 25.41066 36596 ft 484 kts 303°
2026-05-09 15:01 33.91268 25.30942 36596 ft 484 kts 303°
2026-05-09 15:02 33.94980 25.24181 36596 ft 484 kts 303°
2026-05-09 15:02 33.98695 25.17422 36594 ft 484 kts 305°
2026-05-09 15:03 34.03166 25.11370 36596 ft 484 kts 316°
2026-05-09 15:03 34.08064 25.05800 36597 ft 484 kts 316°
2026-05-09 15:04 34.12117 25.01135 36597 ft 484 kts 316°
2026-05-09 15:06 34.31622 24.78653 36597 ft 484 kts 316°
2026-05-09 15:06 34.36488 24.73024 36597 ft 484 kts 316°
2026-05-09 15:07 34.41327 24.67416 36597 ft 484 kts 316°
2026-05-09 15:07 34.46192 24.61768 36597 ft 484 kts 316°
2026-05-09 15:08 34.51060 24.56106 36597 ft 484 kts 316°
2026-05-09 15:08 34.58236 24.47490 36597 ft 484 kts 314°
2026-05-09 15:10 34.77220 24.24310 36597 ft 484 kts 314°
2026-05-09 15:11 34.81967 24.18499 36597 ft 484 kts 314°
2026-05-09 15:11 34.86715 24.12677 36597 ft 484 kts 314°
2026-05-09 15:12 34.91460 24.06848 36597 ft 484 kts 314°
2026-05-09 15:12 34.96205 24.01011 36597 ft 484 kts 314°
2026-05-09 15:13 35.00944 23.95162 36597 ft 484 kts 314°
2026-05-09 15:13 35.05672 23.89315 36597 ft 484 kts 314°
2026-05-09 15:14 35.10399 23.83460 36597 ft 484 kts 314°
2026-05-09 15:14 35.15125 23.77596 36597 ft 484 kts 314°
2026-05-09 15:15 35.19821 23.71759 36597 ft 484 kts 314°
2026-05-09 15:15 35.24089 23.65414 36596 ft 484 kts 302°
2026-05-09 15:16 35.27576 23.58347 36597 ft 486 kts 301°
2026-05-09 15:16 35.31092 23.51279 36597 ft 484 kts 301°
2026-05-09 15:17 35.34576 23.44247 36597 ft 483 kts 301°
2026-05-09 15:17 35.38053 23.37197 36597 ft 484 kts 301°
2026-05-09 15:18 35.41526 23.30138 36597 ft 484 kts 301°
2026-05-09 15:18 35.44996 23.23072 36597 ft 484 kts 301°
2026-05-09 15:19 35.48461 23.16001 36597 ft 484 kts 301°
2026-05-09 15:19 35.51904 23.08959 36597 ft 484 kts 301°
2026-05-09 15:20 35.57092 22.98323 36597 ft 484 kts 301°
2026-05-09 15:21 35.60544 22.91229 36597 ft 484 kts 300°
2026-05-09 15:21 35.63993 22.84123 36597 ft 484 kts 300°
2026-05-09 15:22 35.67439 22.77011 36597 ft 484 kts 300°
2026-05-09 15:22 35.70879 22.69898 36597 ft 484 kts 300°
2026-05-09 15:23 35.74310 22.62785 36597 ft 484 kts 300°
2026-05-09 15:23 35.77743 22.55656 36597 ft 484 kts 300°
2026-05-09 15:24 35.81148 22.48569 36597 ft 484 kts 300°
2026-05-09 15:24 35.84572 22.41428 36597 ft 484 kts 300°
2026-05-09 15:25 35.87989 22.34286 36597 ft 484 kts 300°
2026-05-09 15:25 35.91404 22.27134 36597 ft 484 kts 300°
2026-05-09 15:26 35.96519 22.16393 36596 ft 484 kts 300°
2026-05-09 15:26 35.99903 22.09269 36597 ft 484 kts 300°
2026-05-09 15:27 36.03306 22.02090 36597 ft 484 kts 300°
2026-05-09 15:27 36.06702 21.94913 36597 ft 484 kts 300°
2026-05-09 15:28 36.10089 21.87734 36597 ft 484 kts 300°
2026-05-09 15:28 36.13478 21.80537 36596 ft 484 kts 300°
2026-05-09 15:29 36.16860 21.73341 36597 ft 484 kts 300°
2026-05-09 15:29 36.20240 21.66136 36597 ft 484 kts 300°
2026-05-09 15:30 36.23613 21.58928 36597 ft 484 kts 300°
2026-05-09 15:30 36.26959 21.51763 36597 ft 484 kts 300°
2026-05-09 15:31 36.30327 21.44537 36596 ft 484 kts 300°
2026-05-09 15:31 36.33685 21.37315 36596 ft 484 kts 300°
2026-05-09 15:32 36.37037 21.30078 36596 ft 484 kts 300°
2026-05-09 15:32 36.40387 21.22842 36596 ft 484 kts 300°
2026-05-09 15:33 36.43735 21.15597 36596 ft 484 kts 300°
2026-05-09 15:33 36.47074 21.08351 36511 ft 481 kts 299°
2026-05-09 15:34 36.48725 21.04764 36122 ft 477 kts 299°
2026-05-09 15:34 36.50365 21.01194 36008 ft 474 kts 299°
2026-05-09 15:34 36.53646 20.94043 36000 ft 478 kts 299°
2026-05-09 15:35 36.56935 20.86859 36001 ft 478 kts 299°
2026-05-09 15:35 36.60222 20.79664 36000 ft 478 kts 299°
2026-05-09 15:36 36.63478 20.72520 35999 ft 478 kts 299°
2026-05-09 15:36 36.66755 20.65316 36002 ft 478 kts 299°
2026-05-09 15:37 36.70025 20.58110 36000 ft 478 kts 299°
2026-05-09 15:37 36.73290 20.50901 36002 ft 478 kts 299°
2026-05-09 15:38 36.76553 20.43681 35999 ft 478 kts 299°
2026-05-09 15:38 36.79812 20.36455 36000 ft 478 kts 299°
2026-05-09 15:39 36.83066 20.29220 36002 ft 478 kts 299°
2026-05-09 15:39 36.86315 20.21983 36000 ft 478 kts 299°
2026-05-09 15:40 36.89562 20.14735 36000 ft 478 kts 299°
2026-05-09 15:40 36.92782 20.07531 36002 ft 478 kts 299°
2026-05-09 15:41 36.96022 20.00267 36000 ft 478 kts 299°
2026-05-09 15:41 36.99256 19.92998 36000 ft 478 kts 298°
2026-05-09 15:42 37.02486 19.85724 36000 ft 478 kts 298°
2026-05-09 15:42 37.05708 19.78450 35997 ft 478 kts 298°
2026-05-09 15:43 37.08925 19.71173 36002 ft 478 kts 298°
2026-05-09 15:43 37.10513 19.67575 35999 ft 464 kts 298°
2026-05-09 15:43 37.12045 19.64099 35995 ft 449 kts 298°
2026-05-09 15:44 37.13511 19.60771 36001 ft 435 kts 298°
2026-05-09 15:44 37.14949 19.57502 36001 ft 422 kts 298°
2026-05-09 15:44 37.17777 19.51059 36003 ft 423 kts 298°
2026-05-09 15:45 37.20628 19.44556 36000 ft 427 kts 298°
2026-05-09 15:45 37.23479 19.38040 36001 ft 425 kts 298°
2026-05-09 15:46 37.26317 19.31539 36001 ft 425 kts 298°
2026-05-09 15:46 37.29157 19.25022 36001 ft 425 kts 298°
2026-05-09 15:47 37.31991 19.18504 36001 ft 425 kts 298°
2026-05-09 15:47 37.34823 19.11978 36000 ft 425 kts 298°
2026-05-09 15:48 37.37652 19.05449 35999 ft 425 kts 298°
2026-05-09 15:48 37.40529 18.98952 35999 ft 425 kts 303°
2026-05-09 15:49 37.43820 18.92852 35999 ft 425 kts 304°
2026-05-09 15:49 37.47164 18.86623 36000 ft 425 kts 303°
2026-05-09 15:50 37.50464 18.80440 36000 ft 425 kts 303°
2026-05-09 15:50 37.53737 18.74291 36002 ft 425 kts 303°
2026-05-09 15:51 37.57030 18.68096 36001 ft 425 kts 303°
2026-05-09 15:51 37.60319 18.61896 36001 ft 425 kts 303°
2026-05-09 15:52 37.64712 18.53596 35999 ft 425 kts 303°
2026-05-09 15:53 37.67975 18.47420 36001 ft 425 kts 303°
2026-05-09 15:53 37.71252 18.41203 36002 ft 425 kts 303°
2026-05-09 15:54 37.74528 18.34976 36002 ft 425 kts 303°
2026-05-09 15:54 37.77800 18.28747 36000 ft 425 kts 303°
2026-05-09 15:55 37.81069 18.22512 35995 ft 425 kts 303°
2026-05-09 15:55 37.84334 18.16271 36001 ft 425 kts 303°
2026-05-09 15:56 37.87597 18.10023 35999 ft 425 kts 303°
2026-05-09 15:56 37.90856 18.03771 35998 ft 425 kts 303°
2026-05-09 15:57 37.94107 17.97521 36002 ft 425 kts 303°
2026-05-09 15:57 37.97362 17.91255 36002 ft 425 kts 303°
2026-05-09 15:57 37.99189 17.88309 36000 ft 425 kts 315°
2026-05-09 15:58 38.01513 17.85990 36000 ft 427 kts 329°
2026-05-09 15:58 38.04174 17.84455 36000 ft 428 kts 343°
2026-05-09 15:58 38.07095 17.83755 36000 ft 428 kts 356°
2026-05-09 15:58 38.10073 17.83960 36002 ft 429 kts 10°
2026-05-09 15:59 38.12923 17.85058 36004 ft 430 kts 24°
2026-05-09 15:59 38.15497 17.86992 36002 ft 431 kts 38°
2026-05-09 15:59 38.17638 17.89649 35997 ft 432 kts 52°
2026-05-09 15:59 38.19227 17.92888 36001 ft 432 kts 65°
2026-05-09 16:00 38.20166 17.96506 36004 ft 433 kts 79°
2026-05-09 16:00 38.19930 18.04080 35999 ft 433 kts 107°
2026-05-09 16:00 38.18769 18.07593 36002 ft 432 kts 121°
2026-05-09 16:01 38.17019 18.10689 36007 ft 432 kts 129°
2026-05-09 16:01 38.13382 18.16768 36000 ft 432 kts 126°
2026-05-09 16:02 38.09961 18.23050 36001 ft 432 kts 124°
2026-05-09 16:02 38.04352 18.31915 36003 ft 431 kts 145°
2026-05-09 16:03 38.01747 18.33774 35999 ft 430 kts 159°
2026-05-09 16:03 37.98871 18.34793 36005 ft 429 kts 173°
2026-05-09 16:03 37.95898 18.34915 36003 ft 428 kts 186°
2026-05-09 16:03 37.92993 18.34136 36003 ft 427 kts 200°
2026-05-09 16:04 37.90321 18.32501 36002 ft 426 kts 214°
2026-05-09 16:04 37.88071 18.30146 36000 ft 426 kts 228°
2026-05-09 16:04 37.86310 18.27146 36002 ft 425 kts 242°
2026-05-09 16:04 37.85174 18.23703 36001 ft 425 kts 255°
2026-05-09 16:05 37.84726 18.20031 36005 ft 425 kts 269°
2026-05-09 16:05 37.84993 18.16309 36003 ft 425 kts 283°
2026-05-09 16:05 37.85949 18.12781 36002 ft 425 kts 296°
2026-05-09 16:05 37.87495 18.09595 36005 ft 425 kts 306°
2026-05-09 16:06 37.90895 18.03461 36000 ft 425 kts 304°
2026-05-09 16:06 37.94198 17.97241 35999 ft 425 kts 303°
2026-05-09 16:07 37.97505 17.91028 35995 ft 425 kts 307°
2026-05-09 16:07 37.99517 17.88293 36000 ft 426 kts 320°
2026-05-09 16:07 38.01998 17.86240 35999 ft 427 kts 334°
2026-05-09 16:08 38.04799 17.84999 35999 ft 428 kts 348°
2026-05-09 16:08 38.07756 17.84641 36002 ft 429 kts
2026-05-09 16:08 38.10672 17.85178 36000 ft 430 kts 15°
2026-05-09 16:08 38.13440 17.86593 36001 ft 431 kts 29°
2026-05-09 16:09 38.15870 17.88807 36000 ft 431 kts 43°
2026-05-09 16:09 38.17825 17.91704 36001 ft 432 kts 57°
2026-05-09 16:09 38.19180 17.95101 36000 ft 432 kts 71°
2026-05-09 16:09 38.19866 17.98813 35998 ft 433 kts 84°
2026-05-09 16:10 38.19841 18.02628 36004 ft 433 kts 98°
2026-05-09 16:10 38.19108 18.06328 36002 ft 432 kts 112°
2026-05-09 16:10 38.17712 18.09691 36003 ft 432 kts 125°
2026-05-09 16:10 38.15901 18.12755 36001 ft 432 kts 128°
2026-05-09 16:11 38.12283 18.18858 36002 ft 432 kts 126°
2026-05-09 16:11 38.08860 18.25123 36000 ft 432 kts 124°
2026-05-09 16:12 38.05161 18.31090 36000 ft 431 kts 140°
2026-05-09 16:12 38.02687 18.33216 35996 ft 431 kts 154°
2026-05-09 16:12 37.99884 18.34535 36000 ft 430 kts 168°
2026-05-09 16:13 37.96921 18.34970 35998 ft 429 kts 182°
2026-05-09 16:13 37.93975 18.34498 35998 ft 428 kts 195°
2026-05-09 16:13 37.91202 18.33148 36000 ft 427 kts 209°
2026-05-09 16:13 37.88806 18.31039 36000 ft 426 kts 223°
2026-05-09 16:14 37.86853 18.28236 36003 ft 425 kts 237°
2026-05-09 16:14 37.85492 18.24927 35999 ft 425 kts 251°
2026-05-09 16:14 37.84801 18.21298 36002 ft 425 kts 264°
2026-05-09 16:14 37.84821 18.17577 36002 ft 425 kts 278°
2026-05-09 16:15 37.85547 18.13965 35998 ft 425 kts 291°
2026-05-09 16:15 37.86906 18.10647 36003 ft 425 kts 304°
2026-05-09 16:15 37.90355 18.04543 36000 ft 428 kts 304°
2026-05-09 16:16 37.93693 17.98290 36002 ft 428 kts 303°
2026-05-09 16:16 37.96977 17.91986 36004 ft 433 kts 303°
2026-05-09 16:17 37.98657 17.88748 36002 ft 444 kts 303°
2026-05-09 16:17 38.00374 17.85439 35996 ft 454 kts 303°
2026-05-09 16:17 38.02129 17.82054 36003 ft 465 kts 303°
2026-05-09 16:17 38.03926 17.78584 35999 ft 475 kts 303°
2026-05-09 16:18 38.05755 17.75045 36000 ft 486 kts 303°
2026-05-09 16:18 38.07620 17.71433 35999 ft 485 kts 303°
2026-05-09 16:18 38.11302 17.64291 36000 ft 484 kts 303°
2026-05-09 16:19 38.14987 17.57125 36001 ft 485 kts 303°
2026-05-09 16:19 38.18648 17.49992 36000 ft 485 kts 303°
2026-05-09 16:20 38.22325 17.42809 36002 ft 485 kts 303°
2026-05-09 16:20 38.26000 17.35616 35999 ft 485 kts 303°
2026-05-09 16:21 38.29670 17.28418 36001 ft 485 kts 302°
2026-05-09 16:21 38.33333 17.21216 36001 ft 485 kts 302°
2026-05-09 16:22 38.36993 17.14004 36000 ft 485 kts 302°
2026-05-09 16:22 38.40651 17.06781 36000 ft 484 kts 302°
2026-05-09 16:23 38.44302 16.99556 36000 ft 485 kts 302°
2026-05-09 16:23 38.47928 16.92364 35999 ft 485 kts 302°
2026-05-09 16:24 38.51575 16.85127 35998 ft 484 kts 302°
2026-05-09 16:24 38.55216 16.77886 36001 ft 485 kts 302°
2026-05-09 16:25 38.58854 16.70634 36001 ft 485 kts 302°
2026-05-09 16:25 38.62486 16.63379 35999 ft 485 kts 302°
2026-05-09 16:26 38.66106 16.56098 36001 ft 485 kts 302°
2026-05-09 16:26 38.69719 16.48804 35995 ft 485 kts 302°
2026-05-09 16:27 38.73347 16.41526 35977 ft 485 kts 304°
2026-05-09 16:27 38.77688 16.34899 35961 ft 487 kts 315°
2026-05-09 16:28 38.82766 16.29252 35996 ft 487 kts 320°
2026-05-09 16:28 38.87952 16.23651 36011 ft 487 kts 319°
2026-05-09 16:29 38.93127 16.18052 36012 ft 487 kts 319°
2026-05-09 16:29 38.98309 16.12447 36011 ft 487 kts 319°
2026-05-09 16:30 39.03490 16.06837 36009 ft 487 kts 319°
2026-05-09 16:30 39.08662 16.01224 36008 ft 486 kts 319°
2026-05-09 16:31 39.13829 15.95607 36010 ft 486 kts 319°
2026-05-09 16:31 39.18993 15.89970 36006 ft 486 kts 319°
2026-05-09 16:32 39.23282 15.85278 36008 ft 486 kts 319°
2026-05-09 16:32 39.29303 15.78680 36005 ft 486 kts 319°
2026-05-09 16:33 39.34456 15.73014 36006 ft 486 kts 319°
2026-05-09 16:33 39.39597 15.67347 36005 ft 486 kts 319°
2026-05-09 16:34 39.44738 15.61649 36003 ft 486 kts 319°
2026-05-09 16:34 39.49877 15.55969 36001 ft 486 kts 319°
2026-05-09 16:35 39.55017 15.50289 35998 ft 485 kts 320°
2026-05-09 16:35 39.60606 15.45394 35996 ft 485 kts 327°
2026-05-09 16:36 39.71990 15.36058 35998 ft 486 kts 328°
2026-05-09 16:37 39.77726 15.31420 35995 ft 486 kts 328°
2026-05-09 16:37 39.83465 15.26772 36000 ft 486 kts 327°
2026-05-09 16:38 39.88235 15.22900 35998 ft 486 kts 327°
2026-05-09 16:38 39.93969 15.18234 36002 ft 486 kts 327°
2026-05-09 16:39 39.99740 15.13528 35995 ft 486 kts 327°
2026-05-09 16:39 40.05436 15.08873 36001 ft 486 kts 327°
2026-05-09 16:40 40.11171 15.04178 36003 ft 486 kts 327°
2026-05-09 16:42 40.34092 14.85317 36003 ft 486 kts 327°
2026-05-09 16:42 40.39774 14.80617 36002 ft 486 kts 327°
2026-05-09 16:43 40.45497 14.75874 36002 ft 486 kts 327°
2026-05-09 16:43 40.51213 14.71128 36001 ft 486 kts 327°
2026-05-09 16:44 40.56933 14.66368 36002 ft 486 kts 327°
2026-05-09 16:44 40.62648 14.61603 36004 ft 486 kts 327°
2026-05-09 16:45 40.68369 14.56823 35949 ft 488 kts 327°
2026-05-09 16:45 40.74092 14.52031 36009 ft 487 kts 327°
2026-05-09 16:46 40.79809 14.47234 36005 ft 487 kts 327°
2026-05-09 16:46 40.85534 14.42421 35975 ft 488 kts 327°
2026-05-09 16:47 40.91253 14.37603 36010 ft 487 kts 327°
2026-05-09 16:47 40.96974 14.32772 36008 ft 487 kts 327°
2026-05-09 16:48 41.02680 14.27945 36010 ft 487 kts 327°
2026-05-09 16:48 41.08353 14.23135 36007 ft 487 kts 327°
2026-05-09 16:49 41.14058 14.18289 36007 ft 487 kts 327°
2026-05-09 16:50 41.22602 14.11011 36002 ft 487 kts 327°
2026-05-09 16:50 41.28304 14.06141 35996 ft 487 kts 327°
2026-05-09 16:51 41.34008 14.01260 35997 ft 487 kts 327°
2026-05-09 16:51 41.39707 13.96372 35996 ft 487 kts 327°
2026-05-09 16:52 41.45405 13.91475 36006 ft 487 kts 327°
2026-05-09 16:52 41.51100 13.86570 36000 ft 487 kts 327°
2026-05-09 16:53 41.56798 13.81652 35984 ft 488 kts 327°
2026-05-09 16:53 41.62501 13.76720 35965 ft 488 kts 327°
2026-05-09 16:54 41.68157 13.71817 35996 ft 488 kts 327°
2026-05-09 16:54 41.73858 13.66864 35980 ft 489 kts 326°
2026-05-09 16:55 41.79556 13.61904 35967 ft 490 kts 326°
2026-05-09 16:55 41.85275 13.56915 35959 ft 491 kts 326°
2026-05-09 16:56 41.91002 13.51907 35978 ft 491 kts 326°
2026-05-09 16:56 41.96728 13.46891 36006 ft 491 kts 326°
2026-05-09 16:57 42.02459 13.41858 36004 ft 491 kts 326°
2026-05-09 16:57 42.08181 13.36822 36002 ft 492 kts 326°
2026-05-09 16:58 42.13903 13.31776 35982 ft 492 kts 326°
2026-05-09 16:58 42.19637 13.26707 36004 ft 492 kts 326°
2026-05-09 16:59 42.25373 13.21626 35972 ft 493 kts 326°
2026-05-09 16:59 42.31111 13.16532 35993 ft 494 kts 326°
2026-05-09 17:00 42.36853 13.11423 35985 ft 494 kts 326°
2026-05-09 17:00 42.42586 13.06311 36024 ft 493 kts 326°
2026-05-09 17:01 42.48322 13.01183 35969 ft 495 kts 326°
2026-05-09 17:01 42.54029 12.96071 35976 ft 495 kts 326°
2026-05-09 17:02 42.59775 12.90914 36015 ft 494 kts 326°
2026-05-09 17:02 42.65518 12.85746 36001 ft 495 kts 326°
2026-05-09 17:03 42.71245 12.80581 36022 ft 494 kts 326°
2026-05-09 17:05 42.94029 12.59919 36031 ft 491 kts 326°
2026-05-09 17:05 42.99740 12.54711 36024 ft 490 kts 326°
2026-05-09 17:06 43.05407 12.49530 36020 ft 489 kts 326°
2026-05-09 17:06 43.11026 12.44382 36016 ft 489 kts 326°
2026-05-09 17:07 43.16683 12.39188 35999 ft 489 kts 326°
2026-05-09 17:07 43.22331 12.33991 35995 ft 489 kts 326°
2026-05-09 17:08 43.27971 12.28789 35982 ft 489 kts 326°
2026-05-09 17:08 43.36438 12.20957 36007 ft 488 kts 326°
2026-05-09 17:09 43.42070 12.15732 35984 ft 488 kts 326°
2026-05-09 17:09 43.47666 12.10529 35994 ft 488 kts 325°
2026-05-09 17:10 43.53295 12.05283 35999 ft 488 kts 325°
2026-05-09 17:10 43.58918 12.00031 35995 ft 488 kts 325°
2026-05-09 17:11 43.64546 11.94765 35973 ft 489 kts 325°
2026-05-09 17:11 43.70176 11.89489 35981 ft 489 kts 325°
2026-05-09 17:12 43.75981 11.84594 35982 ft 490 kts 335°
2026-05-09 17:12 43.82452 11.81630 35965 ft 492 kts 348°
2026-05-09 17:13 43.89221 11.80237 35984 ft 492 kts 351°
2026-05-09 17:13 43.96004 11.78867 35975 ft 492 kts 351°
2026-05-09 17:14 44.02736 11.77520 36004 ft 492 kts 351°
2026-05-09 17:14 44.09524 11.76171 36011 ft 492 kts 351°
2026-05-09 17:15 44.16305 11.74821 36017 ft 492 kts 351°
2026-05-09 17:15 44.23076 11.73471 36016 ft 492 kts 351°
2026-05-09 17:17 44.50072 11.68026 36019 ft 490 kts 351°
2026-05-09 17:18 44.56858 11.66649 36015 ft 489 kts 351°
2026-05-09 17:18 44.63547 11.65291 36014 ft 489 kts 351°
2026-05-09 17:19 44.70290 11.63919 36011 ft 489 kts 351°
2026-05-09 17:19 44.77013 11.62548 36008 ft 488 kts 351°
2026-05-09 17:20 44.83738 11.61189 36005 ft 488 kts 352°
2026-05-09 17:20 44.90484 11.60035 36000 ft 488 kts 353°
2026-05-09 17:21 44.97228 11.58893 36003 ft 488 kts 352°
2026-05-09 17:21 45.03918 11.57733 35997 ft 487 kts 352°
2026-05-09 17:22 45.10636 11.56558 36000 ft 487 kts 352°
2026-05-09 17:22 45.17367 11.55378 36001 ft 487 kts 352°
2026-05-09 17:23 45.22970 11.54394 35997 ft 487 kts 352°
2026-05-09 17:23 45.29700 11.53210 36000 ft 487 kts 352°
2026-05-09 17:25 45.49899 11.49641 35988 ft 488 kts 352°
2026-05-09 17:25 45.56634 11.48449 35996 ft 488 kts 352°
2026-05-09 17:26 45.63368 11.47254 36001 ft 488 kts 352°
2026-05-09 17:26 45.70100 11.46052 35995 ft 488 kts 352°
2026-05-09 17:27 45.76842 11.44842 35991 ft 488 kts 352°
2026-05-09 17:27 45.83588 11.43629 35954 ft 490 kts 352°
2026-05-09 17:28 45.90350 11.42411 35952 ft 491 kts 352°
2026-05-09 17:28 45.97223 11.41169 36001 ft 498 kts 352°
2026-05-09 17:29 46.04001 11.39942 36003 ft 493 kts 352°
2026-05-09 17:29 46.10843 11.38704 36003 ft 503 kts 352°
2026-05-09 17:30 46.16956 11.37598 35999 ft 503 kts 352°
2026-05-09 17:30 46.23888 11.36339 36021 ft 500 kts 352°
2026-05-09 17:31 46.30767 11.35085 35993 ft 497 kts 352°
2026-05-09 17:32 46.47701 11.32458 36015 ft 491 kts
2026-05-09 17:33 46.54513 11.33109 35960 ft 491 kts
2026-05-09 17:33 46.61322 11.33774 35983 ft 491 kts
2026-05-09 17:34 46.68151 11.34460 35877 ft 497 kts
2026-05-09 17:35 46.88640 11.36633 31807 ft 481 kts
2026-05-09 17:35 46.91961 11.37001 31225 ft 476 kts
2026-05-09 17:36 46.95215 11.37359 30549 ft 473 kts
2026-05-09 17:36 46.98482 11.37719 30003 ft 468 kts
2026-05-09 17:36 47.01734 11.38061 29239 ft 468 kts
2026-05-09 17:36 47.04966 11.38382 28726 ft 462 kts
2026-05-09 17:37 47.08150 11.38695 28213 ft 456 kts
2026-05-09 17:37 47.11301 11.39007 27622 ft 451 kts
2026-05-09 17:37 47.14420 11.39319 27016 ft 447 kts
2026-05-09 17:37 47.17501 11.39628 26458 ft 442 kts
2026-05-09 17:38 47.20563 11.39938 25898 ft 437 kts
2026-05-09 17:38 47.23498 11.40201 25366 ft 431 kts
2026-05-09 17:38 47.26436 11.40195 24810 ft 426 kts 359°
2026-05-09 17:39 47.32298 11.40204 23674 ft 417 kts 359°
2026-05-09 17:39 47.35200 11.40216 22919 ft 418 kts 359°
2026-05-09 17:39 47.38103 11.40226 22450 ft 413 kts 359°
2026-05-09 17:39 47.40958 11.40227 21933 ft 409 kts 359°
2026-05-09 17:40 47.43794 11.40197 21356 ft 406 kts 359°
2026-05-09 17:40 47.46601 11.40160 20830 ft 401 kts 359°
2026-05-09 17:40 47.49381 11.40124 20299 ft 397 kts 359°
2026-05-09 17:40 47.52126 11.40092 19775 ft 392 kts 359°
2026-05-09 17:41 47.54848 11.40062 19224 ft 389 kts 359°
2026-05-09 17:41 47.57540 11.40034 18695 ft 384 kts 359°
2026-05-09 17:41 47.60205 11.40004 18155 ft 381 kts 359°
2026-05-09 17:41 47.62833 11.39918 17629 ft 376 kts 355°
2026-05-09 17:42 47.65426 11.39546 17085 ft 373 kts 354°
2026-05-09 17:42 47.67972 11.39193 16573 ft 369 kts 354°
2026-05-09 17:42 47.70536 11.38849 16073 ft 364 kts 354°
2026-05-09 17:42 47.73036 11.38514 15551 ft 361 kts 354°
2026-05-09 17:43 47.75128 11.38232 15135 ft 358 kts 354°
2026-05-09 17:43 47.77155 11.37958 14727 ft 355 kts 354°
2026-05-09 17:43 47.79603 11.37625 14220 ft 351 kts 354°
2026-05-09 17:43 47.81992 11.37299 13730 ft 348 kts 354°
2026-05-09 17:44 47.84418 11.36967 13238 ft 344 kts 354°
2026-05-09 17:44 47.86766 11.36654 12742 ft 341 kts 355°
2026-05-09 17:44 47.89125 11.36431 12275 ft 338 kts 356°
2026-05-09 17:44 47.91475 11.36692 11795 ft 345 kts 14°
2026-05-09 17:45 47.93669 11.38118 11311 ft 346 kts 33°
2026-05-09 17:45 47.95460 11.40478 10855 ft 341 kts 44°
2026-05-09 17:45 47.97136 11.42951 10370 ft 336 kts 44°
2026-05-09 17:45 47.98782 11.45371 10082 ft 327 kts 44°
2026-05-09 17:46 48.00366 11.47703 9962 ft 312 kts 44°
2026-05-09 17:46 48.01875 11.49929 9845 ft 300 kts 44°
2026-05-09 17:46 48.03332 11.52079 9740 ft 287 kts 44°
2026-05-09 17:46 48.04725 11.54139 9634 ft 276 kts 44°
2026-05-09 17:47 48.06061 11.56116 9549 ft 265 kts 44°
2026-05-09 17:47 48.07348 11.58022 9403 ft 257 kts 44°
2026-05-09 17:47 48.07775 11.58656 9315 ft 257 kts 44°
2026-05-09 17:48 48.08105 11.59145 9232 ft 256 kts 44°
2026-05-09 17:48 48.09430 11.61090 8934 ft 255 kts 39°
2026-05-09 17:48 48.10653 11.62178 8666 ft 253 kts 17°
2026-05-09 17:48 48.12384 11.62404 8371 ft 250 kts 349°
2026-05-09 17:49 48.13929 11.61440 8076 ft 247 kts 321°
2026-05-09 17:49 48.14977 11.59454 7764 ft 244 kts 292°
2026-05-09 17:49 48.15433 11.57015 7479 ft 243 kts 284°
2026-05-09 17:49 48.15852 11.54564 7204 ft 242 kts 284°
2026-05-09 17:50 48.15977 11.53832 7116 ft 242 kts 284°
2026-05-09 17:50 48.16804 11.49002 6596 ft 240 kts 284°
2026-05-09 17:50 48.17218 11.46583 6324 ft 239 kts 284°
2026-05-09 17:51 48.17629 11.44178 6056 ft 238 kts 284°
2026-05-09 17:51 48.18085 11.41801 5761 ft 237 kts 294°
2026-05-09 17:51 48.19114 11.39899 5474 ft 237 kts 324°
2026-05-09 17:51 48.20643 11.39038 5195 ft 238 kts 352°
2026-05-09 17:52 48.22293 11.38838 5019 ft 238 kts 354°
2026-05-09 17:52 48.23942 11.38626 4998 ft 236 kts 354°
2026-05-09 17:52 48.25544 11.38420 5000 ft 237 kts 354°
2026-05-09 17:52 48.27170 11.38209 5000 ft 238 kts 354°
2026-05-09 17:53 48.28793 11.38000 4996 ft 228 kts 355°
2026-05-09 17:53 48.30309 11.38311 5002 ft 216 kts 19°
2026-05-09 17:53 48.31665 11.39127 4993 ft 204 kts 25°
2026-05-09 17:53 48.32448 11.39930 4948 ft 202 kts 47°
2026-05-09 17:54 48.33358 11.41790 4779 ft 199 kts 54°
2026-05-09 17:54 48.34155 11.43492 4597 ft 199 kts 54°
2026-05-09 17:54 48.34947 11.45176 4623 ft 197 kts 54°
2026-05-09 17:54 48.35732 11.46878 4854 ft 199 kts 60°
2026-05-09 17:55 48.36079 11.48882 4948 ft 202 kts 95°
2026-05-09 17:55 48.35609 11.50835 4959 ft 201 kts 123°
2026-05-09 17:55 48.34827 11.52586 4945 ft 201 kts 124°
2026-05-09 17:55 48.34060 11.54327 4947 ft 200 kts 124°
2026-05-09 17:56 48.33293 11.56069 4951 ft 200 kts 124°
2026-05-09 17:56 48.32524 11.57813 4950 ft 200 kts 124°
2026-05-09 17:56 48.31756 11.59554 4950 ft 200 kts 124°
2026-05-09 17:57 48.30228 11.63011 4950 ft 200 kts 124°
2026-05-09 17:57 48.29469 11.64729 4952 ft 200 kts 124°
2026-05-09 17:57 48.28691 11.66492 4950 ft 200 kts 124°
2026-05-09 17:57 48.27924 11.68231 4951 ft 200 kts 124°
2026-05-09 17:58 48.27154 11.69974 4950 ft 200 kts 124°
2026-05-09 17:58 48.26386 11.71712 4950 ft 200 kts 124°
2026-05-09 17:58 48.25616 11.73451 4949 ft 200 kts 124°
2026-05-09 17:58 48.24859 11.75166 4951 ft 199 kts 124°
2026-05-09 17:59 48.24090 11.76901 4951 ft 200 kts 124°
2026-05-09 17:59 48.23324 11.78633 4951 ft 200 kts 124°
2026-05-09 17:59 48.22556 11.80371 4950 ft 200 kts 124°
2026-05-09 17:59 48.22297 11.80957 4952 ft 200 kts 124°
2026-05-09 18:00 48.22075 11.81457 4951 ft 200 kts 124°
2026-05-09 18:00 48.21284 11.83247 4951 ft 200 kts 124°
2026-05-09 18:00 48.20517 11.84981 4950 ft 200 kts 124°
2026-05-09 18:00 48.19757 11.86692 4951 ft 200 kts 124°
2026-05-09 18:01 48.18986 11.88430 4950 ft 200 kts 124°
2026-05-09 18:01 48.18218 11.90161 4949 ft 200 kts 124°
2026-05-09 18:01 48.17445 11.91902 4950 ft 200 kts 124°
2026-05-09 18:01 48.16678 11.93631 4952 ft 200 kts 124°
2026-05-09 18:02 48.15909 11.95363 4949 ft 200 kts 124°
2026-05-09 18:02 48.15136 11.97100 4949 ft 200 kts 124°
2026-05-09 18:02 48.14364 11.98837 4949 ft 200 kts 124°
2026-05-09 18:02 48.13594 12.00572 4949 ft 200 kts 124°
2026-05-09 18:03 48.12825 12.02302 4950 ft 200 kts 124°
2026-05-09 18:03 48.12053 12.04041 4950 ft 200 kts 124°